Regional Weather Roundup
Issued by NWS

Home | Current Version | Previous Version | Graphics & Text | Print | Product List | Glossary Off
Versions: 1 2 3 4 5 6 7 8 9 10 11 12 13 14 15 16 17 18 19 20 21 22 23 24 25 26 27 28 29 30 31 32 33 34 35 36 37 38 39 40 41 42 43 44 45 46 47 48 49 50

000
ASUS43 KOAX 050402
RWRNE

WEATHER ROUNDUP FOR NEBRASKA
NATIONAL WEATHER SERVICE OMAHA NE
1100 PM CDT WED MAY 04 2016

NOTES: SATELLITE DATA IS BEING USED TO AUGMENT CLOUD COVER ABOVE
       12000 FEET.
       "FAIR" INDICATES FEW OR NO CLOUDS BELOW 12,000 FEET WITH NO
       SIGNIFICANT WEATHER AND/OR OBSTRUCTIONS TO VISIBILITY.

  * THESE STATIONS DO NOT REPORT WEATHER SUCH AS RAIN...SNOW OR FOG.

NEZ001>004-019>022-054>056-050500-
NEBRASKA PANHANDLE

CITY           SKY/WX    TMP DP  RH WIND       PRES   REMARKS
SCOTTSBLUFF    CLEAR     56  43  61 SE6       30.09R
ALLIANCE       CLEAR     49  42  77 S8        30.08S
CHADRON        CLEAR     57  42  57 SE10      30.03R
KIMBALL        CLEAR     50  41  72 SE8       30.15R
SIDNEY         CLEAR     50  42  74 S8        30.14R
$$

NEZ057>060-069>072-079>082-050500-
SOUTHWEST NEBRASKA

CITY           SKY/WX    TMP DP  RH WIND       PRES   REMARKS
NORTH PLATTE   CLEAR     50  40  68 E6        30.08S
IMPERIAL       CLEAR     56  41  57 SE5       30.10R
LEXINGTON      CLEAR     54  41  62 CALM      30.09R
MCCOOK         CLEAR     59  41  51 SE5       30.09R
$$

NEZ005>010-023>029-035>040-094-050500-
NORTH CENTRAL NEBRASKA

CITY           SKY/WX    TMP DP  RH WIND       PRES   REMARKS
VALENTINE      CLEAR     56  38  50 CALM      30.07R
AINSWORTH      CLEAR     51  41  68 SE6       30.08S
BROKEN BOW     CLEAR     46  39  76 N3        30.08R
ORD            CLEAR     46  41  82 CALM      30.07R
$$

NEZ041-046>049-061>064-073>077-083>087-050500-
SOUTH CENTRAL NEBRASKA

CITY           SKY/WX    TMP DP  RH WIND       PRES   REMARKS
GRAND ISLAND   CLEAR     50  38  63 CALM      30.07S
AURORA         CLEAR     50  35  56 NW8       30.07R
HASTINGS       CLEAR     52  37  56 CALM      30.07R
KEARNEY *      CLEAR     55  39  54 CALM      30.09R
YORK           CLEAR     50  37  62 NW6       30.06S
$$

NEZ011>018-030>034-042>045-050500-
NORTHEAST NEBRASKA

CITY           SKY/WX    TMP DP  RH WIND       PRES   REMARKS
NORFOLK        CLEAR     46  38  73 W5        30.05R
ALBION         CLEAR     47  37  69 NW3       30.07R
BLAIR          CLEAR     56  41  57 NW3       30.02R
COLUMBUS *     CLEAR     52  34  50 NW3       30.06R
FREMONT        CLEAR     54  40  60 CALM      30.03S
TEKAMAH        CLEAR     53  42  66 NW6       30.01S
$$

NEZ050>053-065>068-078-088>093-050500-
SOUTHEAST NEBRASKA

CITY           SKY/WX    TMP DP  RH WIND       PRES   REMARKS
LINCOLN        CLEAR     54  40  59 CALM      30.05R
OMAHA EPPLEY   CLEAR     54  44  69 CALM      30.01R
BEATRICE       CLEAR     53  39  59 CALM      30.04R
FALLS CITY     CLEAR     53  39  59 NW5       30.01R
$$

NEZ044-045-051>053-067-050500-
OMAHA AREA

CITY           SKY/WX    TMP DP  RH WIND       PRES   REMARKS
OMAHA EPPLEY   CLEAR     54  44  69 CALM      30.01R
BLAIR          CLEAR     56  41  57 NW3       30.02R
FREMONT        CLEAR     54  40  60 CALM      30.03S
OFFUTT AFB     CLEAR     50  43  78 NW7       30.01R
$$



USA.gov is the U.S. government's official web portal to all federal, state and local government web resources and services.